Pittsburgh, PA

12:25 PM EST on December 12, 2019 (GMT -0500)
Pittsburgh International

Weather History for KPIT - October, 2019

Change the Weather History Date:

Sunday, October 20, 2019

  Actual Average Record
Temperature  
Mean Temperature 58 °F 51 °F  
Max Temperature 69 °F 61 °F 81 °F (1920)
Min Temperature 46 °F 42 °F 20 °F (1972)
Degree Days  
Heating Degree Days 8 14  
Month to date heating degree days 183 219  
Since 1 July heating degree days 191 333  
Cooling Degree Days 0 0  
Month to date cooling degree days 37 6  
Year to date cooling degree days 934 734  
Growing Degree Days 8 (Base 50)    
Moisture  
Dew Point 46 °F    
Average Humidity 72    
Maximum Humidity 90    
Minimum Humidity 50    
Precipitation  
Precipitation 0.00 in 0.07 in 1.96 in (1873)
Month to date precipitation 3.20 1.43  
Year to date precipitation 43.29 31.25  
Sea Level Pressure  
Sea Level Pressure 29.93 in    
Wind  
Wind Speed 2 mph ()    
Max Wind Speed 7 mph    
Max Gust Speed 9 mph    
Visibility 10.0 miles    
Events      
T = Trace of Precipitation, MM = Missing Value Source: Averaged Metar Reports

Daily Weather History Graph

Daily Weather History Graph

Search for Another Location

Airport or City:

Astronomy

Oct. 20, 2019 Rise Set
Actual Time 7:37 AM EDT 6:33 PM EDT
Civil Twilight 7:09 AM EDT 7:01 PM EDT
Nautical Twilight 6:37 AM EDT 7:33 PM EDT
Astronomical Twilight 6:05 AM EDT 8:04 PM EDT
Moon 11:40 PM EDT (10/20) 2:04 PM EDT (10/20)
Length of Visible Light 11h 52m
Length of Day
10h 56m
Waning Gibbous, 59% of the Moon is Illuminated
Oct 20
Waning Gibbous
Oct 21
Last Quarter
Oct 27
New
Nov 4
First Quarter
Nov 12
Full

Hourly Weather History & Observations

Time (EDT) Temp. Dew Point Humidity Pressure Visibility Wind Dir Wind Speed Gust Speed Precip Events Conditions
12:51 AM 50.0 °F 43.0 °F 77% 29.91 in 10.0 mi SSE 4.6 mph - N/A   Overcast
1:51 AM 50.0 °F 43.0 °F 77% 29.89 in 10.0 mi ESE 3.5 mph - N/A   Overcast
2:51 AM 51.1 °F 43.0 °F 74% 29.89 in 10.0 mi Calm Calm - N/A   Overcast
3:51 AM 48.9 °F 44.1 °F 83% 29.88 in 10.0 mi Calm Calm - N/A   Overcast
4:51 AM 48.9 °F 44.1 °F 83% 29.88 in 10.0 mi Calm Calm - N/A   Mostly Cloudy
5:51 AM 46.9 °F 44.1 °F 90% 29.90 in 10.0 mi Calm Calm - N/A   Overcast
6:51 AM 48.0 °F 44.1 °F 86% 29.90 in 10.0 mi Calm Calm - N/A   Overcast
7:51 AM 48.0 °F 44.1 °F 86% 29.91 in 10.0 mi Calm Calm - N/A   Mostly Cloudy
8:51 AM 51.1 °F 46.0 °F 83% 29.92 in 10.0 mi Calm Calm - N/A   Mostly Cloudy
9:51 AM 52.0 °F 46.9 °F 83% 29.94 in 10.0 mi Calm Calm - N/A   Mostly Cloudy
10:51 AM 55.0 °F 46.9 °F 74% 29.94 in 10.0 mi SE 3.5 mph - N/A   Overcast
11:51 AM 60.1 °F 48.0 °F 64% 29.92 in 10.0 mi SE 6.9 mph - N/A   Mostly Cloudy
12:51 PM 63.0 °F 48.0 °F 58% 29.92 in 10.0 mi Calm Calm - N/A   Mostly Cloudy
1:51 PM 64.9 °F 48.9 °F 56% 29.92 in 10.0 mi Variable 3.5 mph - N/A   Mostly Cloudy
2:51 PM 66.0 °F 48.9 °F 54% 29.90 in 10.0 mi ENE 3.5 mph - N/A   Mostly Cloudy
3:51 PM 66.9 °F 48.0 °F 51% 29.92 in 10.0 mi ENE 4.6 mph - N/A   Scattered Clouds
4:51 PM 66.9 °F 48.0 °F 51% 29.93 in 10.0 mi ENE 3.5 mph - N/A   Partly Cloudy
5:51 PM 66.0 °F 46.9 °F 50% 29.94 in 10.0 mi ENE 3.5 mph - N/A   Partly Cloudy
6:51 PM 62.1 °F 46.9 °F 58% 29.94 in 10.0 mi East 3.5 mph - N/A   Clear
7:51 PM 57.0 °F 48.0 °F 72% 29.96 in 10.0 mi Calm Calm - N/A   Clear
8:51 PM 54.0 °F 46.9 °F 77% 29.98 in 10.0 mi NW 3.5 mph - N/A   Clear
9:51 PM 52.0 °F 46.0 °F 80% 30.00 in 10.0 mi Calm Calm - N/A   Clear
10:51 PM 51.1 °F 46.0 °F 83% 30.01 in 10.0 mi Calm Calm - N/A   Clear
11:51 PM 48.9 °F 45.0 °F 86% 30.02 in 10.0 mi WNW 3.5 mph - N/A   Clear